Regional Weather Roundup
Issued by NWS

Home | Current Version | Previous Version | Text Only | Print | Product List | Glossary On
Versions: 1 2 3 4 5 6 7 8 9 10 11 12 13 14 15 16 17 18 19 20 21 22 23 24 25 26 27 28 29 30 31 32 33 34 35 36 37 38 39 40 41 42 43 44 45 46 47 48 49 50
000
ASUS43 KDMX 060206
RWRIA

WEATHER ROUNDUP FOR IOWA
NATIONAL WEATHER SERVICE DES MOINES IA
800 PM CST MON DEC 05 2016

NOTE: "FAIR" INDICATES FEW OR NO CLOUDS BELOW 12,000 FEET WITH NO
SIGNIFICANT WEATHER AND/OR OBSTRUCTIONS TO VISIBILITY.

* - THESE STATIONS ARE NOT NWS STATIONS...THUS NOT UNDER NWS
QUALITY CONTROL.  THEY ALSO DO NOT REPORT WEATHER SUCH
AS PRECIPITATION OR FOG.

IAZ001>003-012>014-020>022-031>034-043>046-060300-
   NORTHWEST IOWA

CITY           SKY/WX    TMP DP  RH WIND       PRES   REMARKS
CARROLL *      CLOUDY    41  37  87 S9        29.72R
CHEROKEE *     CLOUDY    38  32  79 W18G26    29.73R WCI  28
DENISON *      CLOUDY    43  37  81 S10G16    29.69R
LE MARS *      CLOUDY    36  30  80 W18       29.76R WCI  25
ORANGE CITY *  CLOUDY    36  30  80 W23G31    29.72R WCI  24
SHELDON *      CLOUDY    36  32  87 W20G30    29.70R WCI  25
SIOUX CITY     CLOUDY    38  30  73 NW17G28   29.76R WCI  28
SPENCER        CLOUDY    39  32  76 W24G35    29.69R WCI  28
STORM LAKE *   CLOUDY    43  37  81 SW10      29.70R
$$

IAZ055>058-069>071-079>083-090>094-060300-
   SOUTHWEST IOWA

CITY           SKY/WX    TMP DP  RH WIND       PRES   REMARKS
ATLANTIC *     CLOUDY    41  36  81 S7        29.73S
AUDUBON *      CLOUDY    43  36  75 S7        29.73R
CLARINDA *       N/A     37  34  87 CALM      29.76R
COUNCIL BLFS * PTCLDY    41  37  87 S5        29.72S
CRESTON *      PTCLDY    39  36  87 S7        29.75R WCI  34
HARLAN  *      CLOUDY    41  37  87 SW7       29.75R
LAMONI         CLEAR     38  33  82 SE10      29.74S WCI  31
RED OAK *      CLOUDY    39  36  87 CALM      29.74R
SHENANDOAH *   MOCLDY    39  36  87 CALM      29.75R
$$

IAZ047>049-059>061-072>074-084-060300-
   CENTRAL IOWA

CITY           SKY/WX    TMP DP  RH WIND       PRES   REMARKS
AMES           PTCLDY    38  36  92 SE12      29.75R WCI  30
ANKENY *       PTCLDY    39 N/A N/A SE8       29.78R WCI  34
BOONE *        CLOUDY    39  36  87 S12       29.73R WCI  32
CHARITON *       N/A     37  36  93 SE15      29.75F WCI  28
DES MOINES     MOCLDY    40  35  83 S8        29.77R WCI  34
GRINNELL*      CLOUDY    34  33  96 SE15      29.78F FOG     WCI  24
KNOXVILLE *    CLOUDY    37  34  87 SE14G23   29.75F WCI  29
MARSHALLTOWN   CLOUDY    34  33  96 SE18      29.77R WCI  23
NEWTON *       CLOUDY    34  34 100 SE15      29.78R WCI  24
PELLA *        CLOUDY    36  34  93 SE14      29.79F WCI  27
PERRY *        CLOUDY    41  39  93 SE9       29.74R
$$

IAZ004>006-015-016-023>025-035-036-060300-
   NORTH CENTRAL IOWA

CITY           SKY/WX    TMP DP  RH WIND       PRES   REMARKS
ALGONA *       CLOUDY    43  39  87 S22       29.68R
CLARION *      CLOUDY    37  37 100 S14       29.73R WCI  29
ESTHERVILLE    CLOUDY    42  37  82 SW17      29.66R
FORT DODGE *   CLOUDY    43  36  75 S15G21    29.72S
MASON CITY     CLOUDY    35  33  92 S15       29.74R WCI  25
FOREST CITY *  CLOUDY    36  36 100 S21       29.71R WCI  24
WEBSTER CITY * CLOUDY    41  39  93 S13       29.71R
IOWA FALLS *     N/A     35  34  95 SE15      29.75R WCI  25
$$

IAZ007>011-017>019-026>030-037>042-050>054-066-060300-
   NORTHEAST IOWA

CITY           SKY/WX    TMP DP  RH WIND       PRES   REMARKS
CEDAR RAPIDS   CLOUDY    32  32 100 SE14G22   29.83F FOG     WCI  22
CHARLES CITY * CLOUDY    34  34 100 SE20      29.75S FOG     WCI  22
CLINTON *      CLOUDY    32  31  96 SE17      29.90F WCI  21
DECORAH *      CLOUDY    32  30  93 S13G21    29.79R WCI  22
DUBUQUE        FOG       31  31 100 S18       29.86S VSB 1/4 WCI  19
MONTICELLO *   CLOUDY    32  32 100 SE15G24   29.85S FOG     WCI  22
OELWEIN *      CLOUDY    32  32 100 SE21G28   29.80S FOG     WCI  20
WATERLOO       CLOUDY    33  31  92 SE18      29.78S FOG     WCI  22
$$

IAZ064-065-067-068-078-060300-
   EAST CENTRAL IOWA

CITY           SKY/WX    TMP DP  RH WIND       PRES   REMARKS
DAVENPORT      CLOUDY    33  30  88 SE18      29.88F WCI  22
IOWA CITY      CLOUDY    34  32  92 SE14      29.87S WCI  25
MUSCATINE *    CLOUDY    36  32  87 SE9G17    29.88S WCI  29
QUAD CITIES    CLOUDY    35  31  85 E13       29.90S WCI  26
$$

IAZ062-063-075>077-085>089-095>099-060300-
   SOUTHEAST IOWA

CITY           SKY/WX    TMP DP  RH WIND       PRES   REMARKS
BURLINGTON     CLOUDY    35  34  96 E14G20    29.86S WCI  26
FAIRFIELD *    CLOUDY    37  34  87 SE13      29.83S WCI  29
FORT MADISON * CLOUDY    36  36 100 E9        29.86S WCI  29
KEOKUK *       CLOUDY    36  34  93 E12       29.84F FOG     WCI  27
OSKALOOSA *    CLOUDY    35  34  96 SE15      29.81F FOG     WCI  25
CENTERVILLE *  CLOUDY    36  36 100 SE16G23   29.80S WCI  26
OTTUMWA        CLOUDY    36  33  89 SE16      29.81R WCI  26
WASHINGTON *   CLOUDY    36  34  93 SE15      29.86R FOG     WCI  26
$$

ABBREVIATIONS USED IN REMARKS
   TC - TEMPERATURES IN CELSIUS
  WCI - WIND CHILL INDEX
   HX - HEAT INDEX
  VSB - VISIBILITY
$$




USA.gov is the U.S. government's official web portal to all federal, state and local government web resources and services.